Lid_Strength_Index
3 2 2 2 2 3 3 3 3 3 3 3 3 3 3 3 3 3 3 3 3 3 3 3 2 1 4 8 8 4 -1 -1 0 1 4 4 5 6 7 7 6 8 7 5 5 5 5
3 3 3 3 3 4 4 4 3 3 3 3 3 3 3 3 3 3 3 3 3 3 3 3 2 0 5 11 7 3 3 4 4 4 4 4 5 4 6 7 8 6 6 6 6 6 5
4 4 4 4 4 4 4 4 4 3 3 3 3 3 3 3 3 3 3 4 4 4 3 2 2 2 5 8 5 5 4 6 6 4 5 4 2 5 5 7 5 7 9 7 7 6 6
4 4 4 4 4 4 4 4 4 3 4 4 3 3 3 3 3 3 4 4 4 3 2 2 1 4 8 5 4 6 7 7 5 5 3 3 2 4 6 5 7 9 9 12 7 6 6
4 4 4 4 4 4 4 4 3 4 4 3 3 3 3 3 4 4 5 5 3 3 2 1 5 6 9 2 5 5 6 7 8 4 3 1 3 6 6 8 11 10 14 12 11 7 7
4 4 4 5 4 4 4 4 4 4 3 3 4 4 4 4 4 5 5 5 4 3 2 1 2 7 6 6 6 6 6 6 8 7 4 5 6 8 9 10 15 13 13 12 12 8 8
5 5 4 5 5 4 4 4 4 4 4 4 4 4 4 4 5 5 6 7 7 7 5 8 10 6 6 5 5 7 6 7 9 8 10 7 9 11 9 9 9 9 11 12 10 8 9
4 4 4 5 5 5 5 5 4 4 4 4 4 4 4 5 5 5 7 9 8 7 9 5 4 5 4 5 7 6 6 9 10 11 9 10 10 8 7 8 9 10 11 12 9 8 9
5 5 5 5 5 5 5 5 5 4 4 4 4 5 5 5 5 6 7 7 5 5 10 7 5 5 6 5 7 7 7 9 9 10 10 11 9 6 7 9 10 10 11 11 11 10 9
4 5 4 5 5 5 5 5 5 5 5 4 4 5 5 6 7 8 8 6 4 5 12 9 8 6 6 6 8 5 6 7 9 10 10 10 8 7 8 9 9 12 8 9 10 12 16
4 4 4 4 4 4 4 4 4 5 5 5 5 5 6 6 10 9 7 5 5 6 18 8 8 4 7 8 8 7 5 6 9 9 9 10 10 8 9 8 7 10 8 9 10 13 13
4 4 4 4 4 4 4 4 4 4 4 4 5 5 6 8 9 7 6 7 7 12 16 10 7 9 9 10 9 8 7 6 7 9 10 9 7 8 7 6 7 7 9 10 11 13 17
4 4 4 4 4 4 4 4 4 4 5 5 5 6 6 6 10 7 7 8 13 15 9 11 11 10 10 11 10 10 10 11 11 13 13 10 9 8 6 9 8 9 12 16 18 18 18
4 4 4 4 4 4 4 4 4 5 5 6 6 7 7 7 8 7 8 10 16 11 11 9 10 11 11 11 11 10 11 12 10 11 13 13 14 8 7 8 10 11 12 15 21 20 18
4 4 3 4 4 4 4 4 4 5 5 6 7 9 8 7 6 7 10 15 14 11 9 10 10 13 14 11 11 11 12 11 9 11 12 14 13 8 6 6 8 11 13 10 15 15 17
4 4 4 4 4 4 4 4 4 5 5 6 9 10 8 5 5 9 12 14 13 9 8 9 12 11 14 13 12 12 12 9 8 9 10 12 14 9 8 7 7 9 8 14 15 19 20
4 4 4 4 4 4 4 4 4 5 5 6 9 9 6 5 6 10 14 13 10 8 8 10 11 12 11 11 12 13 11 8 7 8 10 11 13 12 10 11 10 11 12 12 12 14 18
4 4 4 4 4 4 4 4 5 5 6 8 10 11 5 4 11 13 15 12 9 9 9 10 10 11 11 10 11 12 11 9 7 7 11 11 13 15 12 9 7 8 10 11 15 15 14
4 4 4 4 4 4 4 4 5 5 6 9 12 10 5 6 13 13 11 10 9 9 9 10 10 9 9 11 12 10 10 7 6 8 10 11 14 16 14 12 10 9 9 9 11 12 14
5 4 4 4 4 4 4 4 4 5 5 9 11 11 7 7 8 10 11 10 10 6 7 8 9 9 10 11 10 10 10 8 7 7 5 7 14 14 15 13 11 11 10 9 11 13 13
5 5 5 4 4 4 4 4 4 5 5 7 11 11 7 11 10 9 10 10 10 10 7 8 10 10 11 12 11 11 8 9 7 6 8 11 14 13 11 9 9 9 9 9 11 11 12
3 3 3 3 3 3 3 3 4 5 5 10 11 9 7 9 8 10 11 11 10 9 8 9 11 9 9 11 10 10 9 10 10 10 10 13 13 10 13 9 8 10 8 9 9 9 10
2 2 2 2 2 2 3 3 3 5 6 10 8 7 8 9 10 11 11 10 9 8 7 6 8 9 10 8 6 7 8 10 9 9 13 12 11 13 15 9 10 12 10 10 10 9 9
2 2 1 1 1 1 2 3 3 4 5 9 9 10 10 11 9 9 8 8 8 8 10 7 7 8 7 5 6 7 9 10 9 11 10 13 11 12 13 12 16 10 8 8 8 8 7
2 1 0 0 0 0 1 1 3 3 4 6 9 9 9 10 8 8 8 8 8 7 9 8 6 5 6 8 10 12 11 12 11 10 11 11 13 14 13 13 11 9 9 8 9 10 7
2 1 0 -0 -1 0 1 0 2 3 4 7 7 7 8 9 10 6 8 7 10 10 9 7 6 6 8 9 11 13 13 12 12 11 12 12 11 13 14 13 15 10 8 6 6 13 7
2 1 -0 -0 -0 -0 -0 -0 2 2 3 6 7 5 7 9 7 7 8 9 7 9 10 8 8 7 8 10 12 13 13 9 12 13 14 13 13 14 13 13 11 8 6 6 13 13 7
2 1 -1 -1 -0 -0 -1 -0 0 2 2 4 7 5 7 9 8 6 7 8 8 8 11 9 9 8 9 11 12 11 13 11 11 11 12 13 13 14 14 13 14 7 8 9 9 6 6
2 0 -1 -1 -1 -0 -1 -1 -0 1 2 3 9 5 5 9 8 5 6 6 7 8 9 9 9 10 8 10 11 11 12 11 13 13 8 12 10 11 12 12 9 8 8 7 5 6 6